Theta_e
337 341 344 343 345 343 345 344 344 344 344 342 341 339 334 334 334 333 335 340 337 333 331 335 337 338 339 339 338 337 336 337 337 335 337 339 336 339 340 340 340 338 340
333 337 333 336 345 342 341 342 342 339 338 339 337 333 332 333 336 337 336 340 336 331 333 334 336 337 337 336 336 337 340 339 335 333 338 341 343 342 333 336 338 336 337
330 330 331 330 333 342 343 342 342 341 340 339 338 336 336 337 341 341 340 336 333 335 335 336 336 336 336 336 334 336 338 338 338 339 341 338 337 338 340 332 329 330 334
327 329 327 326 328 333 335 342 342 342 342 341 341 340 338 337 336 335 331 328 327 327 328 330 330 332 336 332 332 330 335 341 342 343 343 341 338 338 337 333 329 331 330
327 326 325 326 332 333 335 333 333 336 338 338 338 337 335 333 330 330 332 332 331 330 327 325 325 325 326 331 336 335 330 336 344 344 343 344 342 341 337 336 329 327 332
326 325 326 330 335 335 335 335 337 335 334 333 332 332 331 331 328 327 327 328 328 328 330 332 334 335 335 332 327 327 330 343 343 343 343 340 338 341 337 337 337 327 329
327 327 328 331 333 334 334 333 334 334 334 334 334 335 335 334 334 334 333 333 333 332 331 330 329 328 328 332 334 334 328 341 344 343 344 345 340 343 342 336 336 335 328
330 330 331 332 332 335 336 337 337 336 336 335 335 335 335 335 335 336 336 337 338 339 339 339 340 339 339 337 333 331 334 332 344 343 344 342 343 345 345 343 336 337 332
332 332 332 332 334 336 336 335 334 333 333 333 333 334 336 336 337 338 339 339 340 340 341 341 341 341 341 340 337 337 336 332 337 343 344 343 344 343 345 344 344 337 336
334 331 332 333 334 335 333 333 331 330 330 332 334 335 336 338 338 339 340 341 341 341 342 343 343 343 342 340 339 340 337 336 334 333 336 343 344 344 344 345 344 344 337
334 331 331 332 334 332 330 328 328 329 330 333 337 347 349 347 345 347 345 344 344 344 344 344 344 343 341 340 342 346 347 346 341 341 337 337 339 341 342 344 342 340 343
334 332 331 330 330 330 330 330 329 331 334 337 341 350 349 347 346 345 347 347 346 346 347 348 349 344 342 343 346 345 340 341 340 338 339 340 339 336 339 342 339 338 342
344 345 340 333 338 337 334 339 339 344 343 346 344 350 348 349 347 350 352 351 348 348 349 350 349 351 350 348 348 347 347 343 338 337 341 341 340 342 342 341 339 338 335
345 347 346 340 343 342 342 348 348 350 349 349 348 348 348 346 350 351 352 352 352 353 352 351 351 352 350 348 349 348 348 347 343 341 342 338 338 341 337 336 340 341 339
344 347 346 345 346 347 346 348 349 350 351 350 351 351 349 350 350 351 351 349 351 351 350 349 352 350 349 350 350 347 347 347 346 344 342 341 336 338 337 335 338 340 338
344 346 346 346 346 348 346 349 349 351 350 351 351 351 349 348 351 351 350 351 352 349 350 348 350 348 347 349 349 348 347 346 346 345 344 343 341 340 338 337 339 340 339
344 346 346 347 347 347 347 348 350 349 349 348 350 352 351 351 349 350 349 350 350 351 347 347 348 351 351 350 345 346 346 343 343 344 341 346 343 338 336 336 340 341 341
344 345 346 346 347 345 345 346 350 348 350 349 349 352 351 351 348 349 349 345 347 348 347 348 348 347 350 349 350 347 346 347 343 345 344 344 345 339 335 339 340 342 342
344 345 346 345 347 346 344 345 346 348 349 348 350 351 351 349 351 353 350 351 348 350 350 346 344 350 347 346 350 346 345 345 346 345 345 345 343 339 338 338 339 342 342
343 344 344 345 345 346 341 341 343 348 350 351 350 350 354 351 351 352 349 352 350 349 351 353 346 351 346 348 349 347 348 346 345 346 346 346 346 345 341 343 343 342 340
343 344 343 343 344 336 339 340 345 350 351 350 351 352 354 348 350 349 351 352 353 349 352 351 346 351 349 352 351 351 349 344 345 346 347 347 345 346 343 345 343 338 340
341 341 342 342 343 342 348 343 344 350 349 351 354 352 353 350 350 350 350 352 350 350 351 349 346 352 351 347 352 351 348 343 345 347 346 345 346 346 346 345 337 339 340
340 340 340 340 341 343 345 348 346 349 350 352 351 354 352 352 351 347 351 349 351 349 353 347 346 348 350 347 348 348 346 345 348 348 345 346 346 347 345 339 337 337 336
338 340 341 341 342 343 344 346 345 347 350 351 352 354 354 354 350 349 348 351 351 354 353 353 353 351 351 348 347 349 350 350 350 349 347 348 347 346 341 337 336 336 336
339 341 342 341 342 344 344 344 344 345 349 349 350 352 353 353 355 351 349 350 351 353 354 353 350 353 349 347 350 350 351 351 351 351 350 348 347 345 338 336 336 337 336
340 342 342 342 343 346 345 342 340 341 345 349 351 351 351 351 352 352 352 352 353 354 354 356 351 346 350 349 351 353 353 352 351 351 350 350 347 342 337 336 335 335 335
Wind_Speed
17 17 17 19 20 23 25 25 25 25 24 24 21 21 21 20 19 16 16 14 14 11 11 11 10 10 11 12 11 10 9 8 6 6 8 10 9 7 8 8 8 10 10
21 20 19 21 21 23 24 24 23 24 24 23 22 21 20 18 17 13 12 12 12 9 11 10 10 10 11 11 9 7 6 7 8 7 7 7 6 5 6 6 6 10 10
21 22 20 20 22 22 21 20 20 20 21 20 19 18 17 15 13 13 13 12 10 9 9 9 9 8 8 7 6 4 3 4 6 7 5 5 3 2 2 4 5 7 8
21 21 19 19 20 20 19 19 19 19 19 18 17 16 15 14 12 11 11 10 9 8 7 7 6 5 4 4 3 2 2 3 3 4 3 4 2 3 4 1 4 6 8
21 19 18 17 16 17 18 17 18 17 17 17 15 14 12 10 9 9 9 8 6 5 5 5 4 4 5 6 5 4 4 5 5 3 6 1 1 1 2 3 4 6 8
20 19 17 16 15 15 15 16 16 16 15 14 12 11 10 8 8 7 6 6 5 4 4 5 5 4 5 5 7 8 9 8 7 5 4 4 4 2 2 6 7 8 11
20 18 16 14 14 16 17 16 15 14 14 13 11 10 9 8 8 7 7 5 5 4 4 3 3 4 5 6 7 9 11 12 12 11 9 8 6 4 2 2 7 10 11
19 18 16 15 15 16 16 15 14 13 12 12 11 10 9 8 7 7 6 5 4 3 3 3 2 2 3 4 6 9 12 15 16 14 12 9 8 6 7 6 6 10 12
17 17 16 15 16 15 15 14 13 12 11 10 10 8 7 6 5 5 4 4 3 2 2 2 2 3 5 6 7 8 10 14 18 17 14 13 13 11 11 12 7 10 13
16 16 16 15 14 13 13 12 10 9 9 8 8 8 6 5 4 4 3 3 2 1 2 2 3 4 6 7 6 6 8 10 13 15 18 17 14 13 16 15 13 12 14
15 15 14 14 13 12 12 11 11 10 10 11 11 9 8 5 3 3 2 2 3 2 2 3 3 5 7 7 7 6 7 8 10 10 14 16 15 14 14 19 15 17 17
16 15 14 14 13 13 12 12 12 11 11 10 10 8 6 4 4 3 2 3 3 3 3 3 3 5 7 9 10 9 10 10 8 9 11 16 15 12 15 14 18 18 23
14 13 13 15 15 14 15 14 14 12 9 9 9 7 5 4 5 5 4 3 3 3 2 4 6 10 8 8 10 7 9 10 9 10 12 12 11 9 12 17 25 19 21
15 12 12 17 16 15 16 13 11 9 9 7 5 6 3 5 5 6 6 5 4 6 7 7 8 10 7 6 9 7 9 10 11 11 11 11 12 9 10 17 22 28 21
15 15 14 16 14 13 14 10 10 9 7 6 5 5 6 5 5 4 4 5 7 4 4 4 6 7 5 6 7 10 7 10 11 14 16 16 15 13 15 15 15 22 25
16 18 16 15 14 12 12 10 7 7 7 7 5 5 3 3 5 6 5 6 7 6 5 4 5 6 6 8 11 10 12 12 12 14 16 16 20 20 19 18 17 17 25
21 19 17 14 14 13 14 11 8 7 6 5 5 4 5 6 5 6 5 8 5 5 5 5 6 8 9 10 13 11 12 13 16 16 17 17 18 20 20 18 17 21 25
24 22 18 15 13 10 14 14 10 10 8 8 8 7 6 6 5 3 3 3 5 4 7 7 10 6 9 11 12 15 17 18 19 16 17 16 19 20 19 23 21 21 23
26 24 20 16 16 13 14 15 16 14 9 8 9 6 8 6 6 5 4 3 3 3 3 4 6 10 10 11 14 14 16 19 19 15 13 16 18 20 18 19 25 23 20
28 24 18 17 16 14 16 16 18 18 13 11 10 9 7 8 5 4 5 1 2 3 4 6 9 12 13 16 15 14 19 18 19 14 16 18 18 22 22 24 27 23 18
30 27 22 18 17 17 19 19 20 19 15 13 10 8 8 7 5 6 6 4 7 8 9 11 13 14 14 13 18 19 21 17 14 11 16 18 21 22 23 26 25 13 8
31 27 24 20 18 20 16 17 20 16 15 12 7 9 8 8 8 8 7 6 7 9 11 13 15 15 17 18 17 20 13 18 10 17 19 19 21 22 24 22 13 5 6
33 29 26 23 19 19 19 17 20 19 17 13 9 7 9 10 11 10 11 8 9 10 9 11 14 16 18 17 16 12 8 7 22 13 16 14 17 20 20 14 7 6 8
35 30 26 24 21 20 19 19 20 21 19 15 12 8 7 9 15 13 12 10 10 11 12 13 15 16 19 19 15 12 13 15 17 11 13 17 16 15 12 6 5 6 10
35 33 29 26 22 19 21 22 21 23 23 20 17 14 12 13 16 17 15 16 15 15 15 15 16 17 16 16 14 16 18 20 18 17 21 15 15 13 6 4 3 3 6
38 34 32 29 25 21 19 21 22 22 25 24 20 19 18 15 14 14 17 18 18 19 16 15 18 17 14 14 14 16 16 18 19 17 19 18 13 8 3 4 2 5 5
Wind_Direction
150 133 121 115 114 119 122 124 125 128 133 138 142 139 134 127 130 131 131 128 127 116 115 116 110 105 103 105 104 94 91 93 95 87 90 90 101 117 128 135 133 134 134
147 140 130 122 118 122 121 123 124 126 130 135 137 139 140 138 138 138 144 134 132 119 118 116 112 109 109 105 94 88 89 91 107 99 106 95 85 115 123 141 145 141 142
150 139 133 126 121 123 130 131 129 131 136 138 140 144 142 146 145 140 138 139 140 131 126 122 124 127 129 124 118 119 115 121 130 124 105 131 129 141 163 145 152 154 159
153 143 141 134 128 127 129 134 136 139 140 142 144 149 150 147 147 148 150 155 156 155 157 153 145 139 148 140 123 121 197 205 146 174 167 134 168 172 184 184 179 171 160
156 151 147 141 136 137 137 139 141 142 146 151 154 157 159 163 167 170 175 180 181 174 176 184 194 203 207 204 212 230 226 222 196 206 188 224 195 232 240 244 228 204 187
160 157 153 149 146 147 144 144 146 147 149 154 159 165 165 163 161 160 168 176 185 200 213 220 226 227 220 213 212 219 218 201 200 220 209 225 237 223 326 278 247 222 206
159 159 158 155 154 150 143 142 145 143 147 151 156 159 163 163 164 173 180 182 197 203 212 223 220 220 221 220 216 215 216 215 209 224 232 229 226 205 294 282 259 234 222
158 158 159 158 159 150 144 142 141 141 145 146 149 151 156 160 164 166 164 158 160 163 176 194 207 219 226 229 222 218 217 220 225 233 239 239 232 210 234 253 249 247 232
164 161 159 157 161 153 147 144 144 147 150 153 152 146 147 151 158 160 159 147 149 174 213 228 229 246 249 242 236 236 228 224 227 236 244 249 249 241 235 242 241 238 240
173 170 160 162 162 158 152 150 149 151 153 153 149 144 145 155 166 166 155 147 180 204 250 259 266 261 251 243 242 239 254 248 239 241 246 249 253 270 261 252 241 251 232
181 176 165 167 166 162 160 159 158 163 163 163 158 152 155 155 182 199 188 209 227 232 257 275 278 267 260 262 268 276 288 276 255 254 250 249 268 268 279 272 272 271 251
174 171 173 174 166 165 158 161 156 156 157 160 167 161 155 158 176 180 176 195 222 238 255 271 274 276 293 299 301 282 315 281 291 271 277 271 293 284 272 287 275 278 265
148 158 162 171 159 148 150 149 152 145 160 173 180 168 198 234 204 185 209 201 220 240 257 272 289 283 307 316 317 330 318 305 287 285 294 287 284 308 301 282 270 288 267
169 163 147 165 153 156 157 151 153 143 156 156 163 188 206 206 206 189 197 214 236 258 264 281 291 283 289 314 324 325 311 307 264 261 281 273 269 254 270 319 285 271 274
183 181 170 156 168 163 171 170 185 175 171 163 170 181 201 187 190 200 236 246 248 253 303 270 292 280 276 308 312 307 308 290 271 269 268 256 257 233 244 288 298 278 260
197 194 187 180 179 188 191 190 176 174 178 190 207 212 235 187 211 253 257 285 281 270 296 308 324 293 300 302 299 295 306 299 280 281 276 261 252 244 249 283 299 290 261
207 199 201 205 198 205 205 201 198 202 211 224 231 270 254 226 231 267 263 300 282 244 259 290 331 296 288 296 305 294 300 307 301 297 304 279 268 256 261 277 299 291 278
213 207 209 217 213 229 224 213 221 234 256 247 249 260 256 234 223 231 282 320 264 268 275 277 302 304 289 290 293 297 302 308 317 311 306 295 281 273 260 267 287 297 286
213 209 212 219 219 239 230 226 230 235 232 221 232 246 256 258 254 257 278 323 262 282 256 300 314 314 305 303 298 292 305 304 306 304 304 300 281 276 279 291 299 300 281
213 214 218 218 220 239 226 224 222 217 220 218 228 236 255 257 275 278 245 274 1 274 281 303 309 316 305 303 307 299 311 306 304 301 288 285 295 297 293 305 306 301 281
213 214 216 217 218 209 212 214 208 217 217 214 235 254 235 227 208 206 214 243 252 271 283 292 303 306 311 313 310 319 318 315 310 303 295 292 299 300 299 311 310 301 283
214 216 218 221 217 214 215 218 213 214 213 225 251 240 235 247 229 233 244 253 273 280 284 294 300 303 314 323 322 324 324 321 323 320 309 301 297 297 300 315 310 278 256
215 219 223 226 225 224 222 217 214 222 224 233 247 246 226 251 256 261 255 264 270 291 307 314 309 313 316 324 327 315 314 295 317 321 318 310 300 297 300 312 286 249 250
220 223 230 229 230 230 222 217 217 222 229 237 251 260 249 272 254 257 260 268 265 280 298 312 324 315 318 327 325 319 307 312 320 312 325 311 307 294 307 281 267 262 272
223 225 229 230 233 237 232 228 226 229 235 237 243 252 246 269 276 253 261 266 274 283 295 305 321 314 315 319 320 324 324 323 321 315 313 314 303 302 306 256 264 271 282
226 228 230 230 234 236 237 238 237 237 238 240 244 246 250 267 268 261 265 271 274 278 290 299 310 315 312 315 318 321 323 321 319 313 304 302 293 294 266 211 221 300 301